Time,TemperatureF,DewpointF,PressureIn,WindDirection,WindDirectionDegrees,WindSpeedMPH,WindSpeedGustMPH,Humidity,HourlyPrecipIn,Conditions,Clouds,dailyrainin,SolarRadiationWatts/m^2,SoftwareType,DateUTC
2013-08-06 00:02:00,68.0,65.0,29.89,SSW,195,2.0,5.0,89,0.00,,,0.00,0.000000,,2013-08-06 05:02:00,
2013-08-06 00:11:00,68.0,65.0,29.89,SSW,195,2.0,5.0,89,0.00,,,0.00,0.000000,,2013-08-06 05:11:00,
2013-08-06 00:22:00,68.0,65.0,29.89,South,180,2.0,7.0,90,0.00,,,0.00,0.000000,,2013-08-06 05:22:00,
2013-08-06 00:32:00,68.0,65.0,29.89,SSW,206,4.0,8.0,90,0.00,,,0.00,0.000000,,2013-08-06 05:32:00,
2013-08-06 00:43:00,68.0,65.0,29.89,SSW,206,4.0,8.0,90,0.00,,,0.00,0.000000,,2013-08-06 05:43:00,
2013-08-06 00:53:00,67.0,64.0,29.90,SSW,200,5.0,8.0,91,0.00,,,0.00,0.000000,,2013-08-06 05:53:00,
2013-08-06 01:02:00,67.0,65.0,29.89,SSW,206,3.0,6.0,92,0.00,,,0.00,0.000000,,2013-08-06 06:02:00,
2013-08-06 01:11:00,67.0,65.0,29.89,SSW,206,3.0,6.0,92,0.00,,,0.00,0.000000,,2013-08-06 06:11:00,
2013-08-06 01:22:00,67.0,65.0,29.89,SSW,199,4.0,7.0,92,0.00,,,0.00,0.000000,,2013-08-06 06:22:00,
2013-08-06 01:32:00,67.0,65.0,29.89,SSW,196,3.0,7.0,93,0.00,,,0.00,0.000000,,2013-08-06 06:32:00,
2013-08-06 01:43:00,67.0,65.0,29.89,SSW,196,3.0,7.0,93,0.00,,,0.00,0.000000,,2013-08-06 06:43:00,
2013-08-06 01:52:00,67.0,65.0,29.89,SSW,208,5.0,7.0,93,0.00,,,0.00,0.000000,,2013-08-06 06:52:00,
2013-08-06 02:01:00,67.0,65.0,29.88,SSW,192,4.0,9.0,94,0.00,,,0.00,0.000000,,2013-08-06 07:01:00,
2013-08-06 02:12:00,67.0,65.0,29.88,SSW,192,4.0,9.0,94,0.00,,,0.00,0.000000,,2013-08-06 07:12:00,
2013-08-06 02:22:00,67.0,65.0,29.88,SW,217,4.0,7.0,94,0.00,,,0.00,0.000000,,2013-08-06 07:22:00,
2013-08-06 02:32:00,67.0,65.0,29.88,SW,215,4.0,7.0,94,0.00,,,0.00,0.000000,,2013-08-06 07:32:00,
2013-08-06 02:43:00,67.0,65.0,29.88,SW,215,4.0,7.0,94,0.00,,,0.00,0.000000,,2013-08-06 07:43:00,
2013-08-06 02:53:00,67.0,66.0,29.88,SW,219,2.0,5.0,95,0.00,,,0.00,0.000000,,2013-08-06 07:53:00,
2013-08-06 03:02:00,67.0,66.0,29.86,SSW,213,2.0,6.0,95,0.00,,,0.00,0.000000,,2013-08-06 08:02:00,
2013-08-06 03:11:00,67.0,66.0,29.86,SSW,213,2.0,6.0,95,0.00,,,0.00,0.000000,,2013-08-06 08:11:00,
2013-08-06 03:22:00,66.0,65.0,29.85,South,191,2.0,5.0,95,0.00,,,0.00,0.000000,,2013-08-06 08:22:00,
2013-08-06 03:33:00,66.0,65.0,29.85,South,178,0.0,4.0,95,0.00,,,0.00,0.000000,,2013-08-06 08:33:00,
2013-08-06 03:43:00,66.0,65.0,29.85,South,178,0.0,4.0,95,0.00,,,0.00,0.000000,,2013-08-06 08:43:00,
2013-08-06 03:52:00,66.0,65.0,29.85,SSW,192,1.0,4.0,95,0.00,,,0.00,0.000000,,2013-08-06 08:52:00,
2013-08-06 04:01:00,66.0,65.0,29.85,SSW,202,2.0,4.0,95,0.00,,,0.00,0.000000,,2013-08-06 09:01:00,
2013-08-06 04:11:00,66.0,65.0,29.85,SSW,202,2.0,4.0,95,0.00,,,0.00,0.000000,,2013-08-06 09:11:00,
2013-08-06 04:22:00,66.0,65.0,29.85,SSW,198,2.0,5.0,96,0.00,,,0.00,0.000000,,2013-08-06 09:22:00,
2013-08-06 04:32:00,66.0,65.0,29.84,South,188,1.0,3.0,96,0.00,,,0.00,0.000000,,2013-08-06 09:32:00,
2013-08-06 04:43:00,66.0,65.0,29.84,South,188,1.0,3.0,96,0.00,,,0.00,0.000000,,2013-08-06 09:43:00,
2013-08-06 04:52:00,66.0,65.0,29.85,SSW,199,2.0,4.0,96,0.00,,,0.00,0.000000,,2013-08-06 09:52:00,
2013-08-06 05:01:00,66.0,65.0,29.85,SSW,200,3.0,6.0,96,0.00,,,0.00,0.000000,,2013-08-06 10:01:00,
2013-08-06 05:12:00,66.0,65.0,29.85,SSW,200,3.0,6.0,96,0.00,,,0.00,0.000000,,2013-08-06 10:12:00,
2013-08-06 05:22:00,66.0,65.0,29.86,SSW,211,3.0,5.0,96,0.00,,,0.00,0.000000,,2013-08-06 10:22:00,
2013-08-06 05:32:00,66.0,65.0,29.86,SSW,205,2.0,6.0,97,0.00,,,0.00,0.000000,,2013-08-06 10:32:00,
2013-08-06 05:43:00,66.0,65.0,29.86,SSW,205,2.0,6.0,97,0.00,,,0.00,0.000000,,2013-08-06 10:43:00,
2013-08-06 05:53:00,67.0,66.0,29.86,SSW,203,0.0,5.0,97,0.00,,,0.00,0.000000,,2013-08-06 10:53:00,
2013-08-06 06:02:00,67.0,66.0,29.86,SSW,196,2.0,5.0,97,0.00,,,0.00,0.000000,,2013-08-06 11:02:00,
2013-08-06 06:11:00,67.0,66.0,29.86,SSW,196,2.0,5.0,97,0.00,,,0.00,0.000000,,2013-08-06 11:11:00,
2013-08-06 06:22:00,67.0,66.0,29.87,South,169,1.0,6.0,97,0.00,,,0.00,0.000000,,2013-08-06 11:22:00,
2013-08-06 06:32:00,67.0,66.0,29.87,SSW,198,1.0,4.0,97,0.00,,,0.00,16.000000,,2013-08-06 11:32:00,
2013-08-06 06:43:00,67.0,66.0,29.87,SSW,198,1.0,4.0,97,0.00,,,0.00,16.000000,,2013-08-06 11:43:00,
2013-08-06 06:53:00,67.0,66.0,29.88,SSW,200,3.0,6.0,97,0.00,,,0.00,18.000000,,2013-08-06 11:53:00,
2013-08-06 07:02:00,67.0,66.0,29.89,SSE,168,3.0,7.0,97,0.00,,,0.00,25.000000,,2013-08-06 12:02:00,
2013-08-06 07:11:00,67.0,66.0,29.89,SSE,168,3.0,7.0,97,0.00,,,0.00,25.000000,,2013-08-06 12:11:00,
2013-08-06 07:22:00,67.0,66.0,29.88,SSW,205,2.0,7.0,97,0.00,,,0.00,46.000000,,2013-08-06 12:22:00,
2013-08-06 07:32:00,67.0,66.0,29.88,SSW,209,5.0,8.0,97,0.00,,,0.00,58.000000,,2013-08-06 12:32:00,
2013-08-06 07:43:00,67.0,66.0,29.88,SSW,209,5.0,8.0,97,0.00,,,0.00,58.000000,,2013-08-06 12:43:00,
2013-08-06 07:52:00,67.0,66.0,29.88,SW,223,4.0,6.0,97,0.00,,,0.00,111.000000,,2013-08-06 12:52:00,
2013-08-06 08:02:00,68.0,67.0,29.88,SW,220,3.0,6.0,96,0.00,,,0.00,135.000000,,2013-08-06 13:02:00,
2013-08-06 08:11:00,68.0,67.0,29.88,SW,220,3.0,6.0,96,0.00,,,0.00,135.000000,,2013-08-06 13:11:00,
2013-08-06 08:22:00,68.0,67.0,29.88,SW,229,4.0,7.0,96,0.00,,,0.00,128.000000,,2013-08-06 13:22:00,
2013-08-06 08:32:00,68.0,67.0,29.88,West,281,3.0,6.0,95,0.00,,,0.00,204.000000,,2013-08-06 13:32:00,
2013-08-06 08:42:00,68.0,67.0,29.88,West,281,3.0,6.0,95,0.00,,,0.00,204.000000,,2013-08-06 13:42:00,
2013-08-06 08:53:00,68.0,67.0,29.87,West,265,2.0,4.0,95,0.00,,,0.00,160.000000,,2013-08-06 13:53:00,
2013-08-06 09:01:00,68.0,67.0,29.88,West,260,0.0,5.0,95,0.00,,,0.00,165.000000,,2013-08-06 14:01:00,
2013-08-06 09:11:00,68.0,67.0,29.88,West,260,0.0,5.0,95,0.00,,,0.00,165.000000,,2013-08-06 14:11:00,
2013-08-06 09:22:00,69.0,67.0,29.88,SSW,213,3.0,5.0,94,0.00,,,0.00,132.000000,,2013-08-06 14:22:00,
2013-08-06 09:32:00,69.0,67.0,29.89,SSW,205,5.0,7.0,94,0.00,,,0.00,153.000000,,2013-08-06 14:32:00,
2013-08-06 09:42:00,69.0,67.0,29.89,SSW,205,5.0,7.0,94,0.00,,,0.00,153.000000,,2013-08-06 14:42:00,
2013-08-06 09:53:00,69.0,67.0,29.90,SSW,194,6.0,9.0,94,0.00,,,0.00,172.000000,,2013-08-06 14:53:00,
2013-08-06 10:02:00,69.0,67.0,29.91,SW,226,6.0,9.0,93,0.00,,,0.00,148.000000,,2013-08-06 15:02:00,
2013-08-06 10:11:00,69.0,67.0,29.91,SW,226,6.0,9.0,93,0.00,,,0.00,148.000000,,2013-08-06 15:11:00,
2013-08-06 10:22:00,70.0,68.0,29.91,SW,232,6.0,11.0,94,0.00,,,0.00,185.000000,,2013-08-06 15:22:00,
2013-08-06 10:33:00,70.0,68.0,29.90,West,263,5.0,10.0,92,0.00,,,0.00,221.000000,,2013-08-06 15:33:00,
2013-08-06 10:44:00,70.0,68.0,29.90,West,263,5.0,10.0,92,0.00,,,0.00,221.000000,,2013-08-06 15:44:00,
2013-08-06 10:52:00,71.0,69.0,29.90,SSW,209,5.0,9.0,92,0.00,,,0.00,185.000000,,2013-08-06 15:52:00,
2013-08-06 11:02:00,71.0,69.0,29.90,SW,217,4.0,7.0,92,0.00,,,0.00,213.000000,,2013-08-06 16:02:00,
2013-08-06 11:11:00,71.0,69.0,29.90,SW,217,4.0,7.0,92,0.00,,,0.00,213.000000,,2013-08-06 16:11:00,
2013-08-06 11:22:00,71.0,68.0,29.90,WSW,242,4.0,10.0,91,0.00,,,0.00,248.000000,,2013-08-06 16:22:00,
2013-08-06 11:32:00,72.0,69.0,29.90,West,259,4.0,7.0,91,0.00,,,0.00,366.000000,,2013-08-06 16:32:00,
2013-08-06 11:43:00,72.0,69.0,29.90,West,259,4.0,7.0,91,0.00,,,0.00,366.000000,,2013-08-06 16:43:00,
2013-08-06 11:52:00,72.0,69.0,29.90,WSW,257,2.0,4.0,90,0.00,,,0.00,482.000000,,2013-08-06 16:52:00,
2013-08-06 12:02:00,74.0,70.0,29.89,NW,316,2.0,5.0,88,0.00,,,0.00,601.000000,,2013-08-06 17:02:00,
2013-08-06 12:11:00,74.0,70.0,29.89,NW,316,2.0,5.0,88,0.00,,,0.00,601.000000,,2013-08-06 17:11:00,
2013-08-06 12:21:00,75.0,71.0,29.88,NNW,338,2.0,6.0,87,0.00,,,0.00,882.000000,,2013-08-06 17:21:00,
2013-08-06 12:32:00,75.0,71.0,29.88,NNW,338,2.0,6.0,87,0.00,,,0.00,882.000000,,2013-08-06 17:32:00,
2013-08-06 12:44:00,75.0,70.0,29.87,NNW,337,3.0,8.0,85,0.00,,,0.00,896.000000,,2013-08-06 17:44:00,
2013-08-06 12:52:00,77.0,72.0,29.87,ENE,70,1.0,5.0,85,0.00,,,0.00,904.000000,,2013-08-06 17:52:00,
2013-08-06 13:01:00,77.0,72.0,29.87,ENE,70,1.0,5.0,85,0.00,,,0.00,904.000000,,2013-08-06 18:01:00,
2013-08-06 13:11:00,79.0,73.0,29.86,East,96,1.0,6.0,82,0.00,,,0.00,911.000000,,2013-08-06 18:11:00,
2013-08-06 13:22:00,79.0,73.0,29.85,SSE,155,3.0,6.0,81,0.00,,,0.00,930.000000,,2013-08-06 18:22:00,
2013-08-06 13:32:00,79.0,73.0,29.85,SSE,155,3.0,6.0,81,0.00,,,0.00,930.000000,,2013-08-06 18:32:00,
2013-08-06 13:43:00,80.0,72.0,29.85,East,86,1.0,5.0,78,0.00,,,0.00,976.000000,,2013-08-06 18:43:00,
2013-08-06 13:52:00,80.0,72.0,29.85,SSE,163,3.0,7.0,77,0.00,,,0.00,824.000000,,2013-08-06 18:52:00,
2013-08-06 14:01:00,80.0,72.0,29.85,SSE,163,3.0,7.0,77,0.00,,,0.00,824.000000,,2013-08-06 19:01:00,
2013-08-06 14:11:00,80.0,72.0,29.85,SSE,163,3.0,7.0,77,0.00,,,0.00,824.000000,,2013-08-06 19:11:00,
2013-08-06 14:21:00,82.0,73.0,29.84,SE,138,2.0,6.0,75,0.00,,,0.00,,,2013-08-06 19:21:00,
2013-08-06 14:32:00,82.0,73.0,29.84,SE,138,2.0,6.0,75,0.00,,,0.00,,,2013-08-06 19:32:00,
2013-08-06 14:42:00,82.0,72.0,29.85,SW,215,2.0,5.0,72,0.00,,,0.00,,,2013-08-06 19:42:00,
2013-08-06 14:52:00,82.0,72.0,29.85,SSW,205,2.0,7.0,73,0.00,,,0.00,554.000000,,2013-08-06 19:52:00,
2013-08-06 15:01:00,82.0,72.0,29.85,SSW,205,2.0,7.0,73,0.00,,,0.00,554.000000,,2013-08-06 20:01:00,
2013-08-06 15:11:00,82.0,73.0,29.84,SSE,148,1.0,4.0,75,0.00,,,0.00,998.000000,,2013-08-06 20:11:00,
2013-08-06 15:22:00,83.0,74.0,29.84,South,188,2.0,7.0,74,0.00,,,0.00,953.000000,,2013-08-06 20:22:00,
2013-08-06 15:32:00,83.0,74.0,29.84,South,188,2.0,7.0,74,0.00,,,0.00,953.000000,,2013-08-06 20:32:00,
2013-08-06 15:44:00,83.0,73.0,29.83,SSE,148,0.0,6.0,72,0.00,,,0.00,800.000000,,2013-08-06 20:44:00,
2013-08-06 15:52:00,83.0,73.0,29.83,SE,126,3.0,7.0,73,0.00,,,0.00,907.000000,,2013-08-06 20:52:00,
2013-08-06 16:01:00,83.0,73.0,29.83,SE,126,3.0,7.0,73,0.00,,,0.00,907.000000,,2013-08-06 21:01:00,
2013-08-06 16:11:00,82.0,72.0,29.82,ESE,113,2.0,7.0,72,0.00,,,0.00,557.000000,,2013-08-06 21:11:00,
2013-08-06 16:22:00,82.0,72.0,29.82,SE,135,1.0,5.0,73,0.00,,,0.00,318.000000,,2013-08-06 21:22:00,
2013-08-06 16:32:00,82.0,72.0,29.82,SE,135,1.0,5.0,73,0.00,,,0.00,318.000000,,2013-08-06 21:32:00,
2013-08-06 16:43:00,83.0,74.0,29.82,SSE,159,1.0,3.0,75,0.00,,,0.00,411.000000,,2013-08-06 21:43:00,
2013-08-06 16:52:00,83.0,73.0,29.83,SSW,203,5.0,9.0,73,0.00,,,0.00,339.000000,,2013-08-06 21:52:00,
2013-08-06 17:01:00,83.0,73.0,29.83,SSW,203,5.0,9.0,73,0.00,,,0.00,339.000000,,2013-08-06 22:01:00,
2013-08-06 17:11:00,82.0,73.0,29.83,SSE,167,4.0,7.0,74,0.00,,,0.00,190.000000,,2013-08-06 22:11:00,
2013-08-06 17:22:00,81.0,73.0,29.83,South,175,3.0,6.0,77,0.00,,,0.00,193.000000,,2013-08-06 22:22:00,
2013-08-06 17:32:00,81.0,73.0,29.83,South,175,3.0,6.0,77,0.00,,,0.00,193.000000,,2013-08-06 22:32:00,
2013-08-06 17:43:00,81.0,73.0,29.83,SSW,192,4.0,10.0,76,0.00,,,0.00,345.000000,,2013-08-06 22:43:00,
2013-08-06 17:52:00,80.0,72.0,29.81,SE,134,2.0,7.0,78,0.00,,,0.00,155.000000,,2013-08-06 22:52:00,
2013-08-06 18:01:00,80.0,72.0,29.81,SE,134,2.0,7.0,78,0.00,,,0.00,155.000000,,2013-08-06 23:01:00,
2013-08-06 18:11:00,81.0,73.0,29.83,South,186,3.0,7.0,76,0.00,,,0.00,206.000000,,2013-08-06 23:11:00,
2013-08-06 18:22:00,81.0,73.0,29.83,SSE,165,3.0,9.0,77,0.00,,,0.00,301.000000,,2013-08-06 23:22:00,
2013-08-06 18:32:00,81.0,73.0,29.83,SSE,165,3.0,9.0,77,0.00,,,0.00,301.000000,,2013-08-06 23:32:00,
2013-08-06 18:43:00,80.0,72.0,29.83,SSW,201,4.0,11.0,78,0.00,,,0.00,123.000000,,2013-08-06 23:43:00,
2013-08-06 18:52:00,80.0,73.0,29.83,SSW,200,3.0,7.0,80,0.00,,,0.00,125.000000,,2013-08-06 23:52:00,
2013-08-06 19:01:00,80.0,73.0,29.83,SSW,200,3.0,7.0,80,0.00,,,0.00,125.000000,,2013-08-07 00:01:00,
2013-08-06 19:11:00,79.0,73.0,29.83,South,184,3.0,6.0,81,0.00,,,0.00,118.000000,,2013-08-07 00:11:00,
2013-08-06 19:21:00,79.0,73.0,29.83,South,184,1.0,5.0,83,0.00,,,0.00,132.000000,,2013-08-07 00:21:00,
2013-08-06 19:32:00,79.0,73.0,29.83,South,184,1.0,5.0,83,0.00,,,0.00,132.000000,,2013-08-07 00:32:00,
2013-08-06 19:43:00,79.0,73.0,29.83,SSE,159,1.0,3.0,82,0.00,,,0.00,114.000000,,2013-08-07 00:43:00,
2013-08-06 19:52:00,79.0,73.0,29.83,SSE,168,0.0,4.0,82,0.00,,,0.00,46.000000,,2013-08-07 00:52:00,
2013-08-06 20:01:00,79.0,73.0,29.83,SSE,168,0.0,4.0,82,0.00,,,0.00,46.000000,,2013-08-07 01:01:00,
2013-08-06 20:11:00,78.0,73.0,29.83,South,169,1.0,4.0,84,0.00,,,0.00,7.000000,,2013-08-07 01:11:00,
2013-08-06 20:22:00,76.0,72.0,29.83,SSE,162,2.0,7.0,86,0.00,,,0.00,0.000000,,2013-08-07 01:22:00,
2013-08-06 20:32:00,76.0,72.0,29.83,SSE,162,2.0,7.0,86,0.00,,,0.00,0.000000,,2013-08-07 01:32:00,
2013-08-06 20:43:00,76.0,72.0,29.83,SSE,147,1.0,5.0,87,0.00,,,0.00,0.000000,,2013-08-07 01:43:00,
2013-08-06 20:52:00,75.0,71.0,29.83,SE,139,1.0,4.0,88,0.00,,,0.00,0.000000,,2013-08-07 01:52:00,
2013-08-06 21:02:00,75.0,71.0,29.83,SE,139,1.0,4.0,88,0.00,,,0.00,0.000000,,2013-08-07 02:02:00,
2013-08-06 21:11:00,74.0,71.0,29.83,SE,141,2.0,5.0,90,0.00,,,0.00,0.000000,,2013-08-07 02:11:00,
2013-08-06 21:22:00,74.0,71.0,29.84,SE,130,1.0,5.0,90,0.00,,,0.00,0.000000,,2013-08-07 02:22:00,
2013-08-06 21:33:00,74.0,71.0,29.84,SE,130,1.0,5.0,90,0.00,,,0.00,0.000000,,2013-08-07 02:33:00,
2013-08-06 21:43:00,73.0,70.0,29.85,SE,138,1.0,5.0,91,0.00,,,0.00,0.000000,,2013-08-07 02:43:00,
2013-08-06 22:01:00,73.0,71.0,29.85,SE,135,0.0,3.0,92,0.00,,,0.00,0.000000,,2013-08-07 03:01:00,
2013-08-06 22:11:00,73.0,71.0,29.85,SE,132,0.0,3.0,92,0.00,,,0.00,0.000000,,2013-08-07 03:11:00,
2013-08-06 22:23:00,72.0,70.0,29.85,SE,139,0.0,2.0,93,0.00,,,0.00,0.000000,,2013-08-07 03:23:00,
2013-08-06 22:32:00,72.0,70.0,29.85,SE,139,0.0,2.0,93,0.00,,,0.00,0.000000,,2013-08-07 03:32:00,
2013-08-06 22:43:00,72.0,70.0,29.85,SSE,156,0.0,3.0,94,0.00,,,0.00,0.000000,,2013-08-07 03:43:00,
2013-08-06 22:52:00,72.0,70.0,29.85,SSE,165,1.0,5.0,94,0.00,,,0.00,0.000000,,2013-08-07 03:52:00,
2013-08-06 23:01:00,72.0,70.0,29.85,SSE,165,1.0,5.0,94,0.00,,,0.00,0.000000,,2013-08-07 04:01:00,
2013-08-06 23:11:00,72.0,70.0,29.85,South,183,1.0,5.0,95,0.00,,,0.00,0.000000,,2013-08-07 04:11:00,
2013-08-06 23:21:00,72.0,70.0,29.85,South,183,1.0,5.0,95,0.00,,,0.00,0.000000,,2013-08-07 04:21:00,
2013-08-06 23:33:00,72.0,70.0,29.85,South,183,1.0,5.0,95,0.00,,,0.00,0.000000,,2013-08-07 04:33:00,
2013-08-06 23:43:00,72.0,70.0,29.85,SE,142,2.0,7.0,95,0.00,,,0.00,0.000000,,2013-08-07 04:43:00,
2013-08-06 23:52:00,73.0,71.0,29.85,South,188,2.0,6.0,95,0.00,,,0.00,0.000000,,2013-08-07 04:52:00,